STARLINK-5679, 55467

Orbit data source: Space-Track

STARLINK-5679, 55467 is a payload satellite owned by SpaceX/Seattle (US) in LEO that was launched on Thu, 02 Feb 2023 UTC via an FALCON 9 launch vehicle from the Air Force Eastern Test Range (AFETR). Payload-class satellites include a variety of spacecraft equipped with specific instruments for various scientific and technological missions. These include communications satellites like Starlink; space stations such as the ISS; scientific satellites like the Hubble; Earth observation satellites from companies like Planet Labs, Umbra, and HawkEye 360; GPS; miniature CubeSats for education and research; and military/defense satellites.

Loading next visibility...
Identifier
55467, 2023-015U
Orbit
LEO
Country
Flag of USUS
Related business
Manufacturer
SpaceX/Seattle
Mission
Operational Commercial Communications
Bus & Motor
STARLINK, Unknown motor
Mass
305 kg wet, ~290 kg dry
Launch date (UTC)
2023-02-02 (3 years ago)
Launch vehicle
FALCON 9
Launch site
Air Force Eastern Test Range (AFETR)
Object type
Payload
Rocket body
Debris
Shape & HBR
Box + 1 Pan, 10.1 m
Radar Cross Section
13.562 m², Large (>1 m²)

Expand to show TLE details & history
Last TLE update: 7 hours ago

TLE from 7 hours ago
0 STARLINK-5679
1 55467U 23015U   26036.71069076  .00000533  00000-0  54506-4 0  9996
2 55467  43.0032 139.7451 0001489 275.8594  84.2079 15.02538346165945
Epoch: 2026-02-05T17:03Z
TLE epoch observation values (Epoch: 2026-02-05T17:03:23.681Z)
Latitude
Longitude
108.03742°
Altitude
558.746 km
Speed
7.584 km/s
True Right ascension
09h 18m 58s
True Declination
0° 00' 00"
Sunlit
Object was in full shadow at epoch
Visualization orbit readout
Latitude
Unknown
Longitude
Unknown
Altitude
Unknown
Speed
Unknown
Apparent Right ascension
Unknown
Apparent Declination
Unknown
Sunlit
N/A
Visualization observer readout
Local Sidereal Time
02:03:17
Azimuth
Unknown
Elevation
Unknown
Doppler factor
Unknown
Orbital elements
Apogee altitude
562.029 km
Perigee altitude
559.962 km
Semi-major axis
6,939.133 km
Eccentricity
0.00015
Inclination
43.0032°
RAAN
139.7451°
Arg. of periapsis
275.8594°
True anomaly
84.22488°
Mean anomaly
84.2079°
Eccentric anomaly
84.21639°
Mean motion
3.75479 °/min
Orbital period
95.88 mins
BSTAR
0.000054506
Loading maneuver chart data...
Computing Atmospheric mass density...
Loading historical data...
Loading historical data...
Loading historical data...
Loading historical data...
Loading historical data...
Loading historical data...
Loading historical data...

Documentation

Showing up to 5 results
|